Quillayute, WA
on Wednesday, January 9, 2013

Wednesday
Previous Day Next Day
Daily Summary
 ActualAverageRecord
Temperature
Mean Temperature °F 41°F  
Max Temperature 45°F 47°F 56°F (1986)
Min Temperature 33°F 36°F 14°F (1974)
Degree Days
Heating Degree Days 26 24  
Month to date heating degree days 216  
Since 1 July heating degree days 2694  
Cooling Degree Days 0 0  
Month to date cooling degree days 0  
Year to date cooling degree days 0  
Moisture
Dew Point 38°F   
Average Humidity 90    
Maximum Humidity 100    
Minimum Humidity 64    
Precipitation
Precipitation 0.24 in 0.49 in 2.61 in (2006)
Month to date precipitation 4.27  
Year to date precipitation 4.27  
Wind
Wind Speed 4 mph   
Max Wind Speed 15 mph   
Max Gust Speed 20 mph   
Visibility 4 miles   
Events Rain   

Key: T is trace of precipitation, MM is missing value
Source: NWS Daily Summary
Time(PST)TemperatureDew PointHumidity Pressure Visibility Wind DirectionWind SpeedGust SpeedPrecipitationEvents Conditions
12:29 AM 44.6°F 42.8°F 93% 29.73 in 1.8 miles West 10.4 mph - 0.02 in Rain Rain
12:37 AM 44.6°F 42.8°F 93% 29.73 in 3.0 miles WSW 8.1 mph - 0.03 in Rain Light Rain
12:53 AM 45.0°F 43.0°F 93% 29.73 in 3.0 miles WSW 6.9 mph - 0.03 in Rain Light Rain
1:09 AM 44.6°F 42.8°F 93% 29.73 in 5.0 miles WSW 8.1 mph - 0.00 in Rain Light Rain
1:40 AM 44.6°F 41.0°F 87% 29.73 in 2.5 miles West 9.2 mph 19.6 mph 0.01 in Rain Light Rain
1:53 AM 43.0°F 41.0°F 93% 29.73 in 4.0 miles West 6.9 mph - 0.02 in Rain Light Rain
2:07 AM 44.6°F 42.8°F 93% 29.73 in 4.0 miles West 8.1 mph - 0.00 in Rain Light Rain
2:53 AM 43.0°F 41.0°F 93% 29.73 in 2.5 miles WNW 4.6 mph - 0.01 in Rain Light Rain
2:59 AM 42.8°F 41.0°F 93% 29.72 in 3.0 miles West 3.5 mph - 0.01 in Rain Light Rain
3:22 AM 42.8°F 41.0°F 93% 29.72 in 4.0 miles Calm Calm - 0.01 in Rain Light Rain
3:33 AM 42.8°F 41.0°F 93% 29.72 in 1.8 miles SSW 8.1 mph - 0.02 in Rain Rain
3:43 AM 42.8°F 41.0°F 93% 29.72 in 3.0 miles West 4.6 mph - 0.04 in Rain Light Rain
3:53 AM 43.0°F 41.0°F 93% 29.72 in 4.0 miles NW 3.5 mph - 0.04 in Rain Light Rain
4:23 AM 42.8°F 41.0°F 93% 29.71 in 1.8 miles ESE 3.5 mph - N/A Rain Light Rain
4:34 AM 42.8°F 41.0°F 93% 29.71 in 3.0 miles Variable 4.6 mph - 0.03 in Rain Light Rain
4:53 AM 42.8°F 41.0°F 93% 29.70 in 5.0 miles SSE 3.5 mph - N/A Rain Light Rain
5:09 AM 42.8°F 41.0°F 93% 29.71 in 1.8 miles West 3.5 mph - 0.01 in Rain Rain
5:18 AM 42.8°F 41.0°F 93% 29.71 in 3.0 miles Calm Calm - 0.02 in Rain Light Rain
5:53 AM 42.1°F 39.9°F 92% 29.71 in 5.0 miles West 3.5 mph - 0.03 in Rain Light Rain
6:53 AM 41.0°F 39.0°F 93% 29.71 in 5.0 miles Variable 3.5 mph - 0.00 in Rain Light Rain
7:53 AM 41.0°F 39.2°F 93% 29.73 in 5.0 miles West 5.8 mph - N/A   Mostly Cloudy
8:53 AM 41.0°F 39.0°F 93% 29.75 in 5.0 miles Calm Calm - 0.01 in Rain Light Rain
9:16 AM 42.8°F 39.2°F 87% 29.76 in 4.0 miles WNW 5.8 mph - 0.00 in   Mostly Cloudy
9:53 AM 42.1°F 39.0°F 89% 29.77 in 4.0 miles West 3.5 mph - 0.00 in   Partly Cloudy
10:13 AM 42.8°F 39.2°F 87% 29.78 in 2.0 miles WNW 12.7 mph 16.1 mph 0.00 in Rain Light Rain
10:20 AM 41.0°F 39.2°F 93% 29.78 in 1.5 miles WNW 6.9 mph 16.1 mph 0.01 in Rain Light Rain
10:27 AM 41.0°F 39.2°F 93% 29.78 in 3.0 miles WNW 6.9 mph - 0.01 in Rain Light Rain
10:37 AM 41.0°F 37.4°F 87% 29.79 in 4.0 miles WNW 10.4 mph 16.1 mph 0.01 in Rain Light Rain
10:46 AM 41.0°F 37.4°F 87% 29.79 in 2.5 miles NW 5.8 mph - 0.01 in Rain Light Rain
10:53 AM 41.0°F 37.9°F 89% 29.79 in 2.0 miles Calm Calm - 0.01 in Rain Light Rain
10:57 AM 41.0°F 37.4°F 87% 29.79 in 3.0 miles Variable 3.5 mph - 0.01 in Rain Light Rain
11:03 AM 41.0°F 37.4°F 87% 29.79 in 2.5 miles WSW 4.6 mph - 0.01 in Rain Light Rain
11:15 AM 41.0°F 37.4°F 87% 29.79 in 3.0 miles West 4.6 mph - 0.01 in Rain Light Rain
11:29 AM 41.0°F 37.4°F 87% 29.79 in 2.5 miles WSW 12.7 mph 19.6 mph 0.01 in Rain Light Rain
11:35 AM 41.0°F 37.4°F 87% 29.79 in 1.2 miles West 9.2 mph 19.6 mph 0.02 in Rain Light Rain
11:45 AM 41.0°F 37.4°F 87% 29.79 in 2.0 miles West 12.7 mph 18.4 mph N/A Rain Light Rain
11:49 AM 41.0°F 37.4°F 87% 29.79 in 3.0 miles WNW 6.9 mph 18.4 mph N/A Rain Light Rain
11:53 AM 41.0°F 37.0°F 86% 29.79 in 3.0 miles WNW 5.8 mph 18.4 mph 0.04 in Rain Light Rain
12:53 PM 43.0°F 37.0°F 80% 29.80 in 4.0 miles West 8.1 mph - 0.00 in   Haze
1:53 PM 42.1°F 35.1°F 76% 29.81 in 4.0 miles West 8.1 mph - N/A   Haze
2:53 PM 44.1°F 33.1°F 65% 29.83 in 4.0 miles West 8.1 mph - 0.00 in   Haze
3:53 PM 41.0°F 33.1°F 73% 29.84 in 4.0 miles West 10.4 mph - N/A   Haze
4:53 PM 37.9°F 30.9°F 76% 29.86 in 4.0 miles Calm Calm - N/A   Haze
5:53 PM 36.0°F 34.0°F 93% 29.87 in 4.0 miles Calm Calm - 0.00 in Rain Light Rain
6:53 PM 34.0°F 33.1°F 96% 29.88 in 5.0 miles East 3.5 mph - 0.00 in   Scattered Clouds
7:53 PM 35.1°F 33.1°F 92% 29.89 in 4.0 miles Calm Calm - 0.00 in Rain Light Rain
8:53 PM 34.0°F 33.1°F 96% 29.90 in 5.0 miles Calm Calm - 0.00 in Rain Light Rain
9:53 PM 35.1°F 35.1°F 100% 29.91 in 5.0 miles Calm Calm - 0.01 in   Overcast
10:44 PM 35.6°F 35.6°F 100% 29.91 in 5.0 miles ESE 3.5 mph - 0.01 in   Overcast
10:53 PM 35.1°F 34.0°F 96% 29.92 in 5.0 miles ESE 4.6 mph - 0.01 in   Mostly Cloudy
11:51 PM 33.8°F 33.8°F 100% 29.91 in 6.0 miles ENE 3.5 mph - N/A   Mostly Cloudy
11:53 PM 34.0°F 34.0°F 100% 29.92 in 6.0 miles ENE 3.5 mph - N/A   Mostly Cloudy
Moon Phase
Jan. 09 Jan. 11 Jan. 18 Jan. 26 Feb. 03
Sunrise:08:05 AM (PST) Moon Rise:05:51 AM (PST)1/9
Sunset:04:45 PM (PST) Moon Set:02:52 PM (PST)1/9

Copyright © 2014 The Weather Underground, Inc.